Voltar ao catálogo

FENGYUN 1C DEB

AtivoSSO
NORAD 30891·DEBRIS·🇨🇳 China

Lançado May 10, 1999 de Taiyuan Satellite Launch Center

Loading…

Próximas Passagens (próximas 24 horas)

TLE

AtualizadoSource: Space-Track

Época: Sep 14, 2026, 21:49 UTC

1 30891U 99025AYD 26257.90935564  .00000339  00000-0  22774-3 0  9999
2 30891  98.7522 301.7636 0057183 132.2293  40.2568 14.06351926998635

Acompanhe FENGYUN 1C DEB em tempo real com AllMySat

Download on the App Store